Flag for U.S.A. Weather past 2 weeks in Palm Springs, California, U.S.A.

Now
69 °F

Partly sunny.


Feels Like: 69 °F
Forecast: 57 / 71 °F
Wind: 13 mph from Northeast

Location: Palm Springs Regional Airport

Current Time: Jan 31, 2015 at 12:21:52 PM

Latest Report: Jan 31, 2015 at 11:53 AM


Visibility: 10 mi

Pressure: 29.91 "Hg

Humidity: 38%

Dew point: 42 °F

Location of Palm SpringsLocation

Historic Weather in Palm Springs — Graph

°F

Palm Springs temperature yesterday

Maximum temperature yesterday: 66 °F (at 12:53 AM)
Minimum temperature yesterday: 58 °F (at 9:53 PM)
Average temperature yesterday: 62 °F

Past Weeks' High & Low Weather Summary

 TemperatureHumidityPressure
High82 °F (Jan 25, 1:53 PM)93% (Jan 26, 8:53 PM)30.36 "Hg (Jan 26, 8:53 PM)
Low46 °F (Jan 23, 5:53 AM)6% (Jan 22, 11:53 AM)29.83 "Hg (Jan 31, 3:53 AM)
Average65 °F37%30.11 "Hg
* Reported Jan 16 10:53 AM — Jan 31 10:53 AM, Palm Springs, Weather by CustomWeather, © 2014

Note: Actual official high and low records may vary slightly from our data, if they occured in-between our weather recording intervals... More about our weather records

Advertising

Palm Springs weather history for previous 24 hours

 ConditionsComfort  
Time TempWeatherWind HumidityBarometerVisibility
10:53 AM
Jan 31
68 °FMostly cloudy.8 mph40%29.92 "Hg10 mi
9:53 AM63 °FPartly sunny.3 mph63%29.92 "Hg10 mi
8:53 AM62 °FPartly sunny.5 mph65%29.90 "Hg10 mi
7:53 AM59 °FPartly sunny.5 mph69%29.88 "Hg10 mi
6:53 AM59 °FPartly sunny.No wind67%29.86 "Hg10 mi
5:53 AM60 °FMostly cloudy.6 mph65%29.84 "Hg10 mi
4:53 AM61 °FOvercast.8 mph62%29.83 "Hg10 mi
3:53 AM60 °FMostly cloudy.6 mph65%29.83 "Hg10 mi
2:53 AM58 °FPartly cloudy.5 mph78%29.83 "Hg10 mi
1:53 AM58 °FPassing clouds.5 mph78%29.84 "Hg10 mi
12:53 AM58 °FOvercast.No wind78%29.85 "Hg10 mi
11:53 PM
Jan 30
58 °FPassing clouds.No wind78%29.86 "Hg10 mi
10:53 PM59 °FPassing clouds.3 mph78%29.87 "Hg10 mi
9:53 PM58 °FPassing clouds.3 mph81%29.87 "Hg10 mi
8:53 PM59 °FPartly cloudy.No wind78%29.86 "Hg10 mi
7:53 PM61 °FPartly cloudy.No wind70%29.87 "Hg10 mi
6:53 PM63 °FPassing clouds.No wind68%29.85 "Hg10 mi
5:53 PM64 °FOvercast.5 mph61%29.85 "Hg10 mi
4:53 PM65 °FBroken clouds.3 mph56%29.85 "Hg10 mi
3:53 PM66 °FMore clouds than sun.3 mph54%29.85 "Hg10 mi
2:53 PM66 °FBroken clouds.No wind52%29.86 "Hg10 mi
1:53 PM64 °FLight rain. Overcast.No wind56%29.87 "Hg10 mi
12:53 PM64 °FLight rain. Overcast.No wind52%29.89 "Hg10 mi
Weather by CustomWeather, © 2014

See weather overviewHow to use our weather pages